Anderson Regional Airport Anderson US
ICAO: KAND
IATA: AND
Category: Medium
Scheduled Services: No

Elevation: 782 ft
TransAlt. 18000 ft.

Airport Communications:
GREER APP/DEP:118.8
ASOS:120.675
CTAF:123.6
RDO:122.2
UNICOM:122.95

KAND Zoom In..

If you have problems with the map follow the link
https://www.worldairports.se/pages/airport.php?
ICAO=KAND

Runways:

(A) RW 05 length 6002 ft width 149 ft
ILS 111.90 / hdg 51

(B) RW 17 length 4996 ft width 149 ft
---- / hdg 171

(C) RW 23 length 6002 ft width 149 ft
---- / hdg 231

(D) RW 35 length 4996 ft width 149 ft
---- / hdg 351

Location; KAND
Day. 21 / Time. 23.56 Zulu
* Altimeter: 30.07
* Temperature: 18° c. 64.4°f.
* Wind from: 130° Speed 04 kn.
Dewpoint: 07° c.
Visibility: 10 Statute Miles.
Clouds: Clear (automated report).

KAND 212356Z AUTO 13004KT 10SM CLR 18/07 A3007 RMK AO2 SLP180 T01780072 10206 20167 53007


Wind From 130°
Speed 04 kn.

 
 
jpsmedia.com for Web Design worldairports.se 2019   terms of use